Location: El Escondido
(32.5111°N, 116.6697°W)
Time: 15:40:15
(UTC+00:00)

Cosmos 1939 Rocket - Pass Details

Date: 03 August 2024
Orbit: 511 x 553 km, 97.5° (Epoch: 08 September)

Event Time Altitude Azimuth Distance (km) Brightness Sun altitude
Rises 12:25:32 0° 8° (N) 2,631 6.8 -8.0°
Reaches altitude 10° 12:27:38 10° 6° (N) 1,745 5.8 -7.6°
Maximum altitude 12:31:22 69° 283° (WNW) 557 2.7 -6.9°
Drops below altitude 10° 12:35:07 10° 200° (SSW) 1,753 5.0 -6.2°
Sets 12:37:14 0° 198° (SSW) 2,645 5.9 -5.8°
